Theta_e
313 312 313 314 314 320 322 322 323 323 325 325 320 321 320 320 322 320 321 320 319 320 318 318 319 318 319 318 318 318 318 321 321 323 323 321 321 319 319 317 318 319 319 319 319 322 324 327 328 328 327 327 328 329 330 330 331 329 329 330 330 330 331 331 334 335 332 328 324 323 322 322 323 322 322 322 322 322 322 322 321 321 322 325 331 334 333 334 336 334 330 326 324 324 325 325 324
313 312 314 313 317 323 322 322 328 331 329 321 318 320 319 320 320 321 324 322 321 320 319 319 319 319 319 318 318 318 318 319 318 319 320 320 320 320 320 319 318 318 320 319 318 320 322 325 327 328 328 327 327 327 328 329 329 329 329 330 329 327 329 332 334 333 329 325 324 323 323 323 323 323 323 323 323 322 322 322 321 321 322 326 331 334 333 333 334 332 327 325 323 322 323 324 325
312 313 313 314 319 323 324 324 327 332 328 320 321 326 320 318 322 323 323 320 319 319 319 319 319 320 319 319 319 318 319 318 319 319 320 320 319 318 319 318 317 318 320 319 319 319 320 323 325 327 327 327 327 327 327 328 328 327 329 330 327 326 329 332 333 331 326 324 324 324 323 323 323 323 323 324 323 323 322 322 322 320 322 326 331 333 334 333 332 330 327 325 322 320 319 319 322
312 315 316 318 320 322 331 333 334 333 324 321 322 324 324 322 325 323 318 318 319 319 319 319 319 320 319 320 319 318 318 318 319 319 319 318 317 317 316 317 316 317 319 320 320 319 319 321 323 325 326 327 327 327 327 327 328 328 330 329 325 326 328 331 332 329 325 324 324 324 323 323 323 324 324 324 323 323 323 323 323 320 323 327 330 333 334 334 331 329 328 325 323 321 319 316 316
313 315 318 320 321 321 330 330 332 334 323 324 321 319 331 330 326 320 317 319 319 319 319 319 319 319 319 319 318 318 318 318 319 318 318 316 316 316 316 317 316 316 318 320 320 320 319 320 321 323 324 326 326 327 327 327 328 328 329 328 325 325 326 328 329 328 326 325 325 325 324 323 323 324 324 324 322 322 323 323 323 321 326 329 330 332 334 334 330 328 327 325 325 323 320 315 312
317 317 318 319 320 318 326 324 322 331 329 327 321 322 333 326 320 318 317 319 319 319 319 319 319 318 318 318 319 319 318 319 318 318 316 316 316 315 316 316 316 316 317 319 320 320 320 319 320 322 323 324 325 326 326 327 327 327 327 326 324 324 325 325 326 327 326 325 326 325 324 324 323 323 324 324 323 322 323 323 322 321 326 331 330 331 332 331 329 325 324 323 321 318 316 313 311
321 320 318 320 320 319 331 328 323 328 324 320 320 323 324 318 315 316 318 319 319 319 319 319 318 318 318 318 319 319 318 319 318 318 316 316 316 315 315 315 316 316 315 318 319 320 320 320 320 320 322 322 324 325 326 326 327 326 326 325 323 323 323 323 324 325 325 325 325 325 324 324 323 325 326 326 325 322 322 322 321 322 326 331 331 330 330 329 325 320 317 316 314 312 311 310 310
321 320 318 325 329 328 335 328 327 329 318 314 316 318 316 316 316 316 318 318 319 319 319 319 318 318 318 317 318 319 318 318 319 317 317 316 316 315 315 315 315 316 315 316 318 320 320 320 320 320 320 321 322 323 324 326 326 326 325 324 323 322 323 322 323 323 324 325 325 325 324 323 324 327 328 329 327 322 322 322 321 322 325 329 329 328 326 324 320 316 313 313 312 309 308 307 308
319 320 317 326 333 334 333 323 323 323 320 318 315 316 316 316 316 316 318 317 317 317 317 319 318 318 318 317 318 319 318 318 318 317 316 316 316 316 316 315 315 315 316 315 317 319 320 320 320 321 320 320 321 321 322 324 325 325 326 325 323 322 322 321 321 322 322 323 323 324 324 325 326 328 330 330 329 324 321 321 321 322 323 323 322 320 320 319 318 316 312 312 312 310 306 305 306
318 320 317 325 334 331 327 321 323 320 320 319 314 317 317 316 317 316 318 316 316 315 317 318 318 318 317 317 318 318 318 318 318 317 316 316 316 316 316 316 315 315 315 315 316 317 319 320 320 321 321 321 321 321 321 322 323 323 324 325 325 323 323 321 320 321 321 321 322 323 323 325 327 328 330 332 331 326 322 321 320 321 321 319 318 317 318 317 316 314 311 310 312 309 304 304 304
320 319 318 331 336 326 322 322 329 328 325 319 315 317 316 316 317 316 316 315 315 315 316 318 318 318 316 316 317 317 317 317 318 317 316 317 316 316 317 316 316 315 315 315 315 316 317 319 320 321 321 321 321 321 321 321 322 322 323 324 324 324 324 323 321 320 319 319 321 322 323 323 327 326 326 330 333 330 325 323 322 322 321 319 318 316 315 313 312 311 310 310 310 308 304 304 304
320 322 331 341 331 323 322 324 331 335 333 325 318 317 316 316 317 316 315 315 315 315 316 317 318 317 316 316 316 317 317 317 318 317 317 316 316 316 316 317 316 315 315 315 315 315 316 317 319 320 321 322 322 322 322 322 322 322 322 322 323 324 325 324 323 322 319 318 319 321 322 322 325 326 324 327 333 333 329 326 325 324 321 319 316 313 311 310 310 309 310 310 308 306 304 303 304
320 323 334 332 322 323 322 322 328 331 330 323 317 316 317 315 316 317 315 315 315 316 317 317 317 316 316 316 315 317 317 317 317 318 318 317 316 316 316 316 316 316 315 315 315 315 315 316 317 318 320 322 323 323 323 323 323 322 322 322 323 324 325 325 325 324 321 319 319 320 321 321 323 326 324 326 331 332 331 328 325 324 321 318 314 311 310 310 309 309 310 309 306 305 304 304 304
319 320 327 322 320 325 320 320 324 323 321 319 317 315 316 315 316 316 315 317 316 316 317 317 317 316 316 315 315 316 315 316 316 316 317 317 317 316 316 317 316 316 316 315 315 315 315 315 315 316 318 320 322 323 324 323 323 323 322 322 322 324 325 325 325 324 323 321 320 321 321 320 323 325 324 326 330 331 331 329 326 324 322 320 317 313 311 310 309 308 308 307 305 304 304 304 304
318 319 327 325 322 324 319 320 325 324 319 318 318 315 316 316 316 316 316 317 317 316 317 317 317 316 316 315 316 315 315 316 316 316 316 317 317 316 316 316 317 316 316 316 315 315 315 315 315 315 316 317 319 321 322 322 323 323 323 323 323 324 325 325 325 325 324 323 322 322 322 321 323 323 322 324 329 331 330 330 328 325 323 323 321 316 312 310 308 307 306 305 305 304 304 304 304
318 317 325 324 319 321 318 318 324 325 319 316 316 315 316 316 316 317 316 317 316 316 316 316 316 316 316 315 316 316 316 316 315 316 316 317 317 316 316 316 317 316 317 316 316 316 315 315 315 315 315 315 316 318 320 321 323 324 324 324 324 324 324 325 325 325 324 323 323 323 323 323 324 324 323 323 326 330 331 331 329 327 324 323 321 316 312 310 307 306 306 304 305 304 304 304 304
315 319 327 323 317 320 320 321 323 320 319 318 316 316 317 317 317 317 317 317 316 316 316 316 315 315 316 316 316 315 315 315 315 316 316 316 316 316 316 316 316 316 317 317 317 316 315 315 315 315 315 315 315 316 317 319 321 323 325 325 326 326 326 325 325 325 324 323 321 321 323 324 324 323 324 325 326 328 330 331 330 328 325 322 318 314 312 309 306 306 305 304 304 304 304 304 304
318 328 326 320 322 323 323 325 320 316 318 318 316 316 316 318 318 316 317 317 316 316 315 316 315 315 315 315 315 315 315 315 315 315 316 316 316 316 316 316 316 316 317 317 317 316 316 316 315 316 315 315 315 315 316 317 318 321 323 325 327 328 328 328 328 327 326 324 321 319 321 323 323 322 323 325 327 327 329 331 331 329 325 321 318 314 311 309 306 305 305 304 304 304 304 304 304
322 327 320 324 333 324 318 320 316 315 317 316 316 316 316 317 316 315 316 316 315 316 316 315 315 315 315 315 315 314 314 314 315 315 315 316 316 316 316 316 316 316 316 317 317 317 317 316 316 316 316 316 316 315 315 315 316 318 321 323 325 327 327 328 328 328 327 326 323 320 320 320 320 319 320 323 326 327 327 329 330 329 325 321 318 313 309 309 306 305 305 305 304 304 304 304 304
319 320 322 334 330 317 315 317 316 316 316 315 316 315 315 316 315 315 315 315 315 315 315 314 315 315 315 315 314 314 314 314 314 315 315 315 315 315 315 316 315 316 316 316 317 317 317 316 316 316 317 317 317 317 316 316 316 316 318 321 323 325 326 327 327 327 327 328 326 323 321 320 319 319 319 320 323 326 327 328 329 328 325 320 317 312 309 310 307 305 305 304 303 303 304 304 304
317 319 327 329 316 315 318 316 317 316 315 315 315 314 314 315 315 315 315 315 316 315 315 314 314 315 314 314 314 314 315 314 314 314 315 314 315 315 314 315 315 315 315 316 316 317 317 316 316 316 317 317 318 318 317 317 317 317 317 318 320 322 324 326 327 326 325 327 328 326 322 321 320 320 320 320 321 324 326 327 328 328 326 321 317 313 311 311 308 305 305 304 303 303 303 303 304
318 320 322 319 313 317 318 316 317 316 315 315 314 315 316 316 315 315 315 316 317 315 315 315 314 314 314 314 314 314 314 314 315 314 314 314 314 315 314 314 314 314 315 315 316 316 316 316 316 316 316 317 317 318 318 318 318 318 318 318 319 320 321 324 327 329 327 326 327 327 325 323 321 320 320 319 320 322 324 326 328 328 328 325 320 315 314 313 311 306 304 304 303 302 303 303 303
319 320 316 316 316 316 318 318 317 316 315 314 313 315 315 314 314 315 314 315 316 315 315 314 314 314 313 313 313 313 314 313 314 314 314 314 314 314 314 314 314 314 314 315 315 316 316 315 315 315 316 316 317 318 318 318 318 319 319 319 320 320 322 322 324 329 331 330 328 326 325 325 323 321 319 317 318 321 322 324 327 328 328 326 323 320 318 316 313 309 305 304 303 302 303 303 303
319 321 316 316 316 315 317 317 316 316 315 314 314 314 313 313 315 314 314 316 316 314 314 314 314 313 313 313 313 313 313 313 313 314 314 314 314 314 314 314 314 314 314 315 315 315 315 315 315 315 315 316 317 318 319 319 319 319 320 320 321 321 323 324 324 325 328 331 331 331 329 327 326 325 322 318 317 319 322 325 326 327 328 326 324 323 320 318 316 313 309 305 303 302 302 302 303
318 321 316 314 315 315 315 315 315 315 314 314 313 312 312 313 313 313 315 317 315 313 314 313 313 313 313 313 313 313 313 313 313 313 314 313 314 314 314 314 314 314 314 315 315 315 315 315 315 315 315 315 317 318 319 320 320 320 320 320 321 322 323 323 325 326 327 329 332 333 330 327 327 327 325 321 321 322 323 326 327 326 327 326 325 323 320 319 317 315 313 309 304 302 302 302 302
316 317 315 313 314 314 314 314 314 314 314 314 313 313 312 312 313 314 316 316 313 313 314 313 313 313 313 312 312 312 312 313 313 313 313 313 313 313 313 314 314 314 314 315 315 315 315 315 315 315 315 315 316 317 318 320 321 321 321 321 322 323 323 324 325 326 327 329 330 329 327 326 326 326 325 323 323 325 324 326 326 326 326 325 324 322 321 321 319 317 315 313 308 304 302 302 302
314 313 313 313 313 313 313 314 314 313 313 313 314 314 312 311 313 317 316 313 313 314 313 313 313 313 313 312 311 312 312 312 312 312 312 312 312 313 313 313 313 314 313 314 314 315 315 315 315 315 315 314 315 315 316 318 320 320 321 322 323 323 324 326 326 326 326 327 328 327 326 326 326 325 325 323 323 324 324 325 326 326 326 324 323 323 323 323 322 320 318 317 313 308 304 302 301
313 312 313 313 312 313 314 313 313 313 314 313 313 312 311 310 314 317 314 312 313 313 313 312 312 313 312 312 311 311 311 311 311 311 311 312 312 312 312 312 312 313 313 313 314 314 315 315 315 315 315 314 314 314 316 317 319 319 320 322 323 324 325 326 327 327 327 327 327 327 327 327 327 326 326 325 324 324 324 325 326 326 326 325 324 324 324 324 323 321 320 319 317 313 307 303 301
313 312 314 316 315 316 315 313 312 312 314 314 312 314 316 314 315 317 313 311 313 312 312 312 311 312 311 311 310 310 310 310 310 310 311 311 312 312 312 312 311 312 312 312 313 313 314 315 315 315 314 314 313 314 315 318 320 319 320 321 322 324 324 325 326 326 325 326 327 327 328 328 328 327 326 326 326 326 326 326 326 326 325 325 324 324 324 323 322 322 321 320 319 316 312 305 302
314 311 312 317 318 320 315 310 312 312 314 313 312 317 325 323 317 316 314 311 312 312 311 310 310 310 309 309 309 309 309 309 309 310 310 310 310 311 310 310 311 311 311 311 312 312 313 313 314 314 314 314 313 313 315 318 320 321 321 321 322 323 324 325 325 326 326 327 326 326 326 326 326 327 326 326 326 326 326 326 325 324 324 324 325 324 324 323 323 322 321 321 320 318 316 310 303
314 311 316 319 317 326 321 310 312 314 313 312 312 318 325 325 317 314 314 312 313 311 309 309 309 308 308 308 308 308 308 308 308 308 308 309 309 309 309 309 309 310 310 310 311 312 312 313 313 314 314 314 314 314 314 317 321 322 322 322 322 323 324 325 325 326 327 327 326 326 327 326 326 326 325 325 325 325 324 325 324 324 324 324 324 324 324 323 323 323 322 322 321 319 317 312 305
321 314 324 325 316 325 324 310 311 315 314 310 313 319 320 320 315 312 312 312 313 310 307 307 307 307 307 306 306 307 307 307 307 307 307 307 307 307 307 308 308 308 309 309 310 311 312 313 314 315 315 315 314 314 315 317 320 322 323 323 324 324 324 324 325 325 325 326 326 327 328 328 327 327 325 324 324 324 324 324 324 324 324 324 324 324 324 324 324 324 323 323 321 320 318 315 310
326 318 323 329 319 320 321 313 311 311 313 311 312 318 319 318 314 310 311 311 312 309 306 305 305 305 305 305 305 305 305 306 306 306 306 306 306 306 306 307 307 308 308 309 310 311 312 313 314 314 314 314 314 315 315 317 319 321 322 323 323 324 324 323 323 324 324 325 326 326 326 326 327 327 327 326 325 325 324 324 323 324 324 324 324 324 324 324 323 322 322 322 321 320 319 318 316
329 320 318 324 319 317 319 319 313 309 312 313 312 314 317 318 313 309 310 310 310 308 305 304 304 304 303 304 304 304 304 305 305 306 305 306 305 306 306 306 307 308 308 309 310 311 312 312 313 314 314 314 314 314 315 316 318 320 321 322 322 322 322 323 323 323 323 324 325 325 325 325 327 327 328 327 328 327 326 325 324 324 325 325 325 325 325 323 321 320 320 320 320 319 319 319 319
329 323 320 322 320 318 318 319 315 312 315 315 314 315 316 317 313 309 309 310 309 306 303 303 302 302 303 303 303 303 303 304 304 304 304 305 305 305 306 306 307 308 308 309 309 310 310 311 311 312 312 312 313 314 315 316 317 318 320 321 321 321 321 321 322 322 323 324 324 325 325 325 325 325 326 326 327 327 327 327 326 324 323 323 323 324 324 324 322 321 320 319 318 318 318 318 318
327 324 322 324 322 320 318 317 314 312 315 316 316 316 316 318 315 309 308 308 307 304 302 302 301 301 302 302 302 302 302 302 302 302 303 304 304 305 305 306 307 307 308 308 309 309 309 309 310 310 310 310 311 311 312 313 315 316 317 319 319 320 320 320 320 320 321 322 322 323 323 324 324 323 324 324 325 326 325 325 325 324 324 323 322 322 323 323 322 321 319 318 318 317 317 317 317
319 319 319 321 320 318 316 317 315 310 313 319 317 315 316 317 314 308 305 307 305 303 302 301 300 300 300 300 300 301 301 301 301 302 303 303 304 305 305 306 306 307 307 307 308 308 308 308 308 308 309 310 309 309 310 311 312 312 313 314 315 317 318 318 319 319 319 319 319 319 320 321 321 322 323 323 322 323 324 324 324 323 323 322 322 321 321 321 321 320 319 318 318 318 317 317 317
314 315 317 318 317 317 314 314 314 310 313 320 316 314 318 318 314 307 304 306 304 302 301 300 300 299 299 300 300 300 300 300 301 302 302 303 304 304 305 305 306 306 306 306 306 306 306 307 306 307 307 308 308 308 309 309 309 309 309 310 310 311 313 313 315 315 316 316 317 317 318 318 319 320 321 321 321 321 322 322 322 322 321 321 321 320 320 319 319 319 319 318 318 317 317 316 316
315 316 316 317 317 317 318 317 316 312 313 320 316 313 319 318 313 306 302 303 302 301 301 300 299 299 299 300 299 300 300 300 301 302 302 303 303 304 304 305 305 305 305 306 306 306 307 307 306 307 307 306 306 307 307 307 307 307 307 307 307 307 308 308 309 309 309 310 311 312 313 314 315 316 317 318 319 319 319 319 319 319 319 320 319 319 318 318 318 318 318 317 316 316 315 315 314
318 318 317 319 318 317 322 322 318 315 312 316 315 313 317 315 310 305 301 301 301 300 300 299 299 299 299 299 300 300 300 300 301 302 302 303 304 304 304 305 305 305 306 306 307 307 307 307 308 307 307 307 307 307 306 306 306 306 306 306 306 306 306 306 306 306 306 306 306 306 307 308 309 310 310 311 312 313 314 315 315 316 317 317 317 317 316 317 317 317 316 316 315 314 313 313 312
321 320 317 318 318 317 320 319 317 318 316 314 313 316 323 320 315 310 303 301 300 300 299 299 298 298 299 299 300 300 300 300 301 302 303 304 304 305 305 305 306 306 306 306 306 307 307 307 307 307 307 307 307 306 306 306 306 306 306 306 306 306 306 306 306 306 306 305 305 305 305 305 305 305 305 306 306 307 307 308 309 310 311 312 313 314 314 315 315 315 315 315 314 314 313 312 311
322 323 318 317 319 318 318 316 315 320 323 317 311 320 331 326 318 312 304 302 302 300 299 298 298 298 298 299 299 300 300 301 302 303 303 304 304 304 305 305 305 305 305 305 305 305 305 305 305 305 306 306 306 306 305 305 305 306 306 306 306 306 306 306 306 306 306 306 305 305 304 304 304 304 304 304 304 304 304 304 305 305 306 306 308 309 310 311 312 313 313 312 312 312 312 311 311
322 322 320 318 317 317 317 317 317 322 325 315 309 318 327 324 318 311 305 305 303 300 299 298 298 298 298 298 299 299 300 301 302 303 303 303 303 304 304 304 304 304 304 304 304 304 304 304 304 304 304 304 304 304 304 304 304 305 305 305 305 305 305 305 305 305 305 305 305 304 304 304 304 303 303 303 303 303 303 303 303 303 303 304 304 305 306 307 309 310 310 310 310 310 310 310 310
325 320 320 322 319 318 320 319 319 322 320 317 317 318 318 320 319 309 305 308 305 301 300 298 297 298 297 298 298 298 299 300 301 302 302 302 303 303 303 303 303 303 303 303 303 303 303 303 303 303 302 302 302 302 302 303 303 303 303 303 303 303 303 304 304 304 304 304 304 304 304 304 303 303 303 303 302 302 302 302 302 302 302 302 302 302 303 303 305 306 307 307 308 308 308 308 308
323 317 317 321 320 320 323 322 320 317 315 320 323 316 315 322 319 307 305 311 310 304 302 300 298 297 297 297 297 298 299 300 301 301 302 302 302 302 302 302 302 302 302 302 302 302 302 302 302 302 302 301 301 301 301 301 301 301 301 302 302 302 302 302 302 302 302 302 303 303 303 303 302 302 302 302 302 301 301 301 301 301 300 300 300 300 300 300 301 302 303 304 305 305 306 306 306
314 311 315 318 319 320 323 323 321 318 317 321 322 316 317 323 319 309 307 313 314 306 301 299 298 297 297 297 297 297 298 300 300 301 301 301 301 301 302 302 302 302 302 301 301 301 301 301 301 301 301 301 301 300 300 300 300 300 300 300 301 301 300 301 301 301 301 300 301 301 301 301 301 301 301 301 301 301 300 300 300 300 300 299 299 299 299 299 299 299 299 300 301 302 303 303 304
308 313 319 320 321 321 323 322 320 319 319 319 320 318 316 320 321 315 311 311 310 307 302 300 298 297 297 296 297 297 298 299 300 300 300 301 301 301 301 301 301 301 301 301 301 300 300 300 300 300 300 300 300 300 300 300 299 299 299 299 299 299 299 299 299 299 299 298 299 298 298 298 299 299 299 299 299 299 299 299 298 298 298 298 298 298 298 298 298 298 297 298 298 298 299 300 301
310 320 322 320 323 321 322 323 319 320 322 318 317 315 313 318 322 317 312 308 305 305 304 300 298 297 297 296 297 297 298 299 299 300 300 300 301 301 301 301 301 300 300 300 300 300 300 300 299 300 299 299 299 299 299 299 299 299 298 298 298 297 297 297 298 297 297 296 296 295 295 295 295 295 295 296 296 296 295 295 295 295 295 295 295 295 294 295 295 295 296 296 296 297 297 297 298
314 321 321 321 323 320 322 323 319 321 320 314 313 314 312 316 318 314 312 307 301 301 301 299 298 297 297 296 297 297 298 298 299 300 300 300 301 301 301 300 300 300 300 299 299 299 299 299 299 299 299 299 299 298 298 298 298 298 297 297 297 296 296 296 296 295 295 294 294 293 293 293 293 293 293 293 292 292 292 292 292 291 291 291 291 291 291 291 291 291 292 292 293 293 294 294 295
314 318 320 323 322 320 324 322 317 320 319 311 311 313 314 318 316 309 305 302 298 297 299 300 298 297 297 297 297 297 297 298 298 299 300 300 300 300 300 300 299 299 299 299 299 298 298 298 298 298 298 298 298 297 297 297 297 297 296 296 295 295 295 294 294 294 293 293 292 292 292 292 292 291 291 291 290 290 290 290 290 289 289 289 289 289 289 289 289 289 289 289 289 289 289 290 291
313 316 317 321 323 323 325 323 319 321 320 313 310 313 320 322 313 302 298 298 296 298 300 300 298 298 297 297 296 297 297 297 298 299 300 300 300 300 300 299 299 299 298 298 298 298 298 298 297 297 297 297 296 296 295 295 295 295 294 294 294 293 293 293 293 292 292 292 291 291 291 290 290 290 290 289 289 289 289 289 289 289 289 289 289 289 289 289 289 289 288 288 288 288 288 288 288
313 313 314 317 321 321 320 321 320 319 319 316 313 317 321 316 305 298 298 297 296 297 298 298 298 297 297 296 296 296 296 297 298 299 300 300 300 300 299 299 299 298 298 297 297 297 297 297 296 296 295 295 295 294 294 294 293 293 292 292 292 292 291 291 291 291 291 291 291 290 290 290 290 289 289 289 289 288 288 288 288 288 288 288 288 288 288 288 288 288 288 288 288 288 288 288 288
313 311 316 317 315 317 319 319 315 314 317 318 317 318 318 314 306 300 298 298 297 296 296 296 297 296 296 296 296 296 297 298 299 300 300 300 300 299 299 299 298 298 297 297 297 296 296 295 295 294 294 294 293 293 292 292 291 291 291 290 290 290 290 290 290 290 290 290 290 290 290 290 289 289 289 289 289 288 288 288 288 287 287 287 287 287 287 287 287 287 287 287 287 288 287 287 287
316 316 317 314 313 317 320 320 318 316 318 318 318 318 318 318 313 303 299 300 299 297 295 295 296 296 296 296 296 297 298 299 299 299 299 299 299 299 299 298 298 297 297 296 296 295 294 294 293 293 292 292 292 291 291 290 290 289 289 289 289 289 289 289 289 289 288 288 288 288 288 288 288 288 288 288 288 288 288 288 288 288 288 287 287 287 287 287 287 287 287 287 287 287 287 287 287
314 315 312 313 317 319 318 318 319 319 318 319 321 319 317 318 315 309 307 304 300 298 296 295 295 295 295 296 297 297 298 298 299 299 299 299 299 299 299 298 297 297 296 295 295 294 293 293 292 292 291 291 290 290 289 289 289 289 289 288 288 288 288 288 288 288 288 288 288 288 288 287 287 287 287 288 288 288 288 288 288 288 288 288 287 287 287 287 287 287 287 287 287 287 287 287 287
309 311 310 313 317 319 318 318 318 320 318 318 320 319 319 321 317 317 317 307 299 298 297 295 295 295 296 297 297 298 298 299 299 300 300 300 300 299 298 298 297 296 295 294 294 293 292 292 291 291 290 290 289 289 289 289 289 289 288 288 288 288 288 288 288 288 288 288 288 287 287 287 287 287 287 287 287 287 287 287 287 287 287 287 287 287 287 287 287 287 287 287 287 287 287 287 287
311 313 313 314 314 316 318 316 317 320 319 319 318 317 323 322 312 313 314 306 299 298 297 296 295 295 297 297 298 298 299 300 301 301 301 301 300 299 298 297 296 295 294 293 293 292 291 291 290 290 289 289 289 289 289 288 288 288 288 288 288 288 288 287 287 287 287 287 287 287 287 287 287 287 287 287 286 286 287 287 287 287 287 287 287 287 287 287 287 287 287 287 287 287 287 287 287
313 314 314 314 314 315 317 316 317 317 317 320 318 317 321 316 305 306 308 303 299 297 297 296 295 296 297 297 298 299 300 301 302 302 302 301 300 299 298 297 296 295 294 293 292 291 291 290 290 289 289 288 288 288 288 288 288 288 287 287 287 287 288 287 287 287 287 287 287 287 287 287 287 286 286 286 286 286 286 286 286 286 286 286 286 287 287 287 287 287 287 287 287 287 287 288 288
Wind_Speed
6 6 7 6 5 5 4 2 0 2 4 2 2 1 2 3 2 1 2 3 1 3 2 1 1 1 0 0 2 2 3 3 3 2 0 3 2 3 2 2 1 1 2 4 8 12 15 15 15 14 14 14 15 16 16 16 15 14 13 11 10 10 11 11 11 11 11 12 11 10 9 8 6 5 4 4 4 4 3 3 3 3 3 3 5 4 4 5 5 3 1 1 1 2 4 3 4
5 5 6 4 4 4 4 0 2 3 5 2 2 2 3 2 1 3 5 4 2 1 1 0 1 0 0 0 1 1 2 3 4 2 2 3 3 4 3 2 1 2 3 3 6 10 13 14 15 14 14 13 14 15 15 15 15 14 12 11 10 10 11 11 11 11 11 11 10 8 7 6 5 4 3 3 3 4 4 4 4 4 4 4 6 5 5 7 6 4 2 2 2 1 3 3 4
5 4 5 3 3 2 1 2 2 2 5 1 4 4 2 1 3 7 7 5 2 1 1 0 1 1 2 2 1 1 1 3 3 3 3 2 3 4 4 4 2 3 4 3 5 8 11 13 14 14 14 13 13 13 14 15 14 13 11 10 10 9 10 11 11 11 11 11 9 8 7 6 5 5 4 4 4 5 6 6 5 5 4 5 7 7 6 7 8 6 4 4 4 3 3 3 4
4 3 3 2 2 1 2 4 2 4 4 3 2 4 2 3 7 7 5 4 2 1 1 1 1 1 1 2 1 1 3 2 2 2 2 3 4 5 5 4 2 3 5 4 4 6 9 12 13 14 14 14 13 12 13 14 13 13 11 10 10 10 10 11 11 12 12 11 10 9 8 7 7 6 5 5 5 6 7 6 6 5 5 6 8 7 7 7 8 7 5 5 5 6 6 6 6
3 2 3 2 1 1 3 3 2 4 3 4 1 4 5 6 6 5 3 2 2 1 2 2 2 1 2 2 1 1 2 1 1 2 2 3 5 6 5 3 2 2 5 5 4 4 7 10 12 13 14 14 14 13 13 13 13 12 12 11 11 11 11 11 12 12 13 12 11 10 9 8 8 7 7 7 6 6 6 6 5 5 6 7 8 8 8 7 5 5 5 6 7 8 9 9 9
2 1 3 3 2 1 2 3 3 1 4 5 2 5 6 6 6 3 1 3 2 1 2 3 2 2 1 1 1 2 2 2 3 2 1 3 6 7 6 4 2 2 4 5 5 4 5 8 11 13 14 14 14 14 14 13 13 13 12 12 12 12 11 11 12 13 13 13 12 11 10 9 9 9 8 7 5 5 5 6 5 6 7 7 8 8 9 8 5 5 8 8 8 9 11 11 10
2 2 4 2 3 3 3 4 4 2 3 5 3 5 6 6 6 2 1 1 0 1 2 2 3 3 1 3 4 3 4 5 5 2 2 2 5 6 6 6 3 2 2 4 5 5 4 6 10 12 14 14 14 15 15 14 14 14 13 13 13 13 13 12 12 13 14 14 14 12 11 10 9 8 8 6 4 5 6 7 7 7 8 8 8 9 11 10 9 10 9 7 7 8 9 10 9
2 2 3 2 2 4 4 2 3 3 1 3 3 5 6 4 5 2 1 1 1 2 3 2 3 3 0 4 4 4 7 6 4 3 3 2 3 5 7 7 5 2 2 3 5 6 5 6 8 11 13 14 15 15 15 15 16 15 15 14 14 14 14 14 13 14 14 15 15 13 11 10 9 8 8 6 5 5 7 8 7 8 9 9 9 10 11 11 11 12 9 6 6 7 7 7 7
4 3 2 2 2 3 3 2 2 3 3 4 4 4 4 3 4 2 1 1 1 3 3 1 1 2 4 6 6 5 6 5 3 5 4 3 2 4 7 7 5 3 2 3 5 6 7 6 7 10 12 14 15 15 15 16 16 16 16 16 15 15 15 15 14 15 15 16 15 14 12 9 9 8 8 8 6 6 7 7 7 7 8 9 10 10 11 12 12 12 10 6 6 7 6 5 5
4 4 1 2 3 3 3 1 1 2 4 5 5 5 2 3 3 2 3 2 2 3 4 1 1 1 5 7 8 6 5 6 4 6 4 4 3 2 6 8 6 4 2 3 4 6 7 7 7 9 11 13 15 15 16 16 17 17 17 17 16 16 15 15 15 15 16 16 16 15 12 10 10 9 9 10 9 8 8 8 7 8 8 8 9 9 11 12 13 13 12 7 6 7 6 5 4
3 4 3 4 4 3 1 2 4 4 5 6 6 5 2 2 1 2 2 2 1 3 4 2 1 1 4 6 8 8 7 7 4 6 5 5 4 4 5 9 7 4 3 3 4 6 7 8 8 9 10 12 14 15 16 17 17 17 17 17 17 17 16 16 15 15 15 16 16 15 13 11 11 11 11 11 10 10 10 10 8 8 8 8 9 10 11 12 13 12 11 7 6 8 5 5 4
2 2 3 4 3 2 2 2 5 5 6 5 2 2 1 1 0 0 0 1 0 3 4 1 0 2 3 5 7 8 7 7 3 5 6 6 7 6 6 9 8 5 3 3 4 6 7 8 9 9 11 12 14 15 16 17 18 18 17 18 17 17 17 17 16 16 15 15 15 15 13 12 11 11 12 13 12 11 12 12 10 10 9 9 10 11 11 12 12 11 9 6 5 7 5 5 5
2 1 4 3 2 2 3 1 4 4 5 3 3 2 3 2 2 2 2 0 1 2 3 1 0 2 2 6 6 7 10 10 5 5 8 9 9 9 8 9 9 6 5 4 4 6 7 8 9 10 11 12 14 15 16 17 18 18 18 18 18 18 18 18 18 17 16 15 15 14 14 13 12 12 12 14 14 12 13 13 12 10 10 10 11 11 10 12 11 8 7 6 6 6 6 6 5
3 2 4 2 1 2 3 0 2 1 1 3 3 4 5 4 4 2 0 2 3 1 1 1 1 4 3 6 5 5 12 15 12 10 10 11 11 10 10 11 11 8 6 6 6 6 7 8 9 10 11 12 13 15 16 17 18 19 19 18 18 18 18 18 18 18 17 16 15 15 14 14 13 13 13 14 15 15 15 15 14 11 11 11 11 10 10 11 9 6 5 6 6 6 7 7 6
4 2 4 3 2 1 2 0 1 4 1 3 3 6 6 4 4 5 4 3 3 1 1 3 3 5 3 3 7 12 16 17 14 11 9 10 12 11 12 13 14 11 9 8 7 8 8 9 10 11 12 13 14 14 15 16 17 18 18 18 19 18 18 19 18 18 17 17 16 16 15 15 14 14 15 16 17 17 16 17 16 14 12 11 11 11 11 11 9 6 5 6 7 7 7 7 7
4 3 5 3 1 0 2 1 2 4 2 3 3 6 5 3 4 6 6 5 7 6 5 6 6 7 9 10 14 17 17 15 12 11 11 9 10 12 14 15 15 14 12 11 9 9 9 10 11 12 12 13 14 14 15 16 16 17 18 18 19 18 18 18 18 18 18 18 18 17 17 16 16 16 16 17 18 18 18 17 18 18 14 12 12 11 11 12 9 6 6 6 8 8 8 8 8
4 3 4 2 1 2 3 3 2 2 4 5 5 5 1 3 5 6 7 9 13 12 11 12 10 10 12 14 14 14 14 13 11 13 15 11 9 11 13 14 14 14 13 13 11 11 11 10 11 12 13 14 14 15 15 16 16 16 17 18 18 19 19 18 19 19 19 18 18 18 18 17 16 17 17 18 19 19 19 18 18 19 16 13 13 11 11 11 9 7 6 8 9 9 10 9 9
3 3 3 0 2 3 4 6 5 3 3 4 4 3 1 4 7 7 6 8 14 18 18 14 10 9 10 11 11 12 13 13 14 16 16 13 12 11 12 13 14 14 14 14 13 11 11 10 10 11 12 14 15 15 16 16 17 17 18 18 19 19 19 19 19 19 19 19 18 18 18 18 17 17 17 18 19 20 20 19 18 19 17 14 14 13 12 11 9 7 7 9 10 10 11 11 10
3 3 2 2 5 4 5 7 5 3 3 5 5 4 4 5 7 7 4 8 13 16 20 15 10 12 14 14 13 13 13 12 14 14 14 14 13 13 14 15 15 16 16 15 14 13 12 10 10 10 10 12 14 15 16 16 17 18 18 19 19 19 20 19 20 20 20 20 19 19 18 18 18 17 17 18 19 20 20 19 19 20 18 15 14 14 12 12 10 8 8 9 10 12 12 12 11
1 3 1 5 6 4 6 7 6 4 5 6 6 6 5 7 7 5 3 8 10 10 14 13 13 19 21 18 15 13 12 10 11 12 12 12 12 13 13 14 15 16 16 16 15 14 13 11 10 10 10 10 11 13 14 16 17 18 18 19 20 20 20 20 20 20 20 21 21 20 19 19 19 18 18 18 19 20 20 20 19 20 19 16 14 13 12 12 11 10 9 9 10 14 13 12 12
1 4 3 4 4 2 6 7 6 4 4 6 7 6 7 8 6 5 5 6 8 11 13 12 16 22 20 15 12 10 9 9 9 9 10 10 11 11 11 12 13 14 15 15 14 14 14 13 11 10 9 9 9 10 11 12 14 16 17 18 20 20 20 21 21 21 21 22 23 22 20 20 20 19 19 20 20 20 21 21 21 21 20 18 16 13 11 12 13 12 10 8 11 15 15 14 13
2 4 5 5 3 2 8 7 5 4 5 7 8 7 8 8 7 9 7 3 9 15 16 15 18 19 15 10 8 8 7 6 6 6 7 7 8 9 10 11 13 14 14 14 14 13 13 12 10 9 8 8 8 8 9 10 10 12 14 16 18 20 20 20 21 23 23 22 23 23 23 21 21 21 21 21 21 21 22 22 22 23 23 22 19 13 11 13 14 14 11 9 11 15 16 15 14
2 4 6 7 6 6 11 11 9 10 9 8 8 9 11 9 10 12 11 12 18 19 16 15 14 10 8 7 5 5 5 4 3 3 5 6 8 9 10 12 13 14 14 14 13 12 12 11 9 7 7 7 7 7 7 8 9 9 11 12 15 17 19 20 19 22 25 25 25 23 22 22 22 22 21 22 22 22 23 23 23 25 25 24 20 15 14 15 15 15 13 11 12 16 18 17 16
3 3 5 6 7 8 13 14 14 15 14 13 11 11 14 10 8 11 16 19 19 15 11 8 6 6 6 5 5 5 4 2 2 2 4 6 8 10 11 12 12 13 13 13 13 12 12 11 10 9 8 7 7 7 7 7 8 9 10 11 12 14 16 18 18 19 22 24 25 25 24 23 23 23 23 22 23 23 23 23 25 26 26 23 20 18 17 16 16 17 16 13 13 16 19 19 18
4 4 5 5 8 10 14 16 18 19 17 16 11 12 17 13 8 10 17 16 11 8 5 5 4 5 6 5 5 4 2 1 2 3 4 6 8 9 10 11 11 11 12 12 12 12 12 12 11 11 10 9 8 7 7 6 7 8 9 10 10 11 12 13 15 18 20 21 23 26 26 24 24 25 24 22 22 23 23 24 26 25 24 22 22 21 19 17 18 18 17 16 14 15 19 20 20
4 5 5 7 11 14 16 18 19 17 15 14 9 13 15 8 4 9 13 9 5 3 3 3 4 7 7 6 4 2 2 3 4 4 5 6 6 8 8 9 10 10 10 10 11 12 12 13 11 10 10 10 9 9 7 6 6 6 7 8 9 10 10 10 12 13 15 18 21 24 22 20 20 21 23 21 22 24 24 24 24 24 23 24 23 22 20 21 20 18 18 17 16 16 18 21 22
2 3 6 10 13 15 15 17 20 16 13 13 9 10 9 0 2 5 4 3 3 3 3 1 5 7 8 5 3 2 3 4 4 5 6 7 6 7 7 8 9 8 8 8 9 10 11 12 11 10 10 9 8 9 8 8 6 5 5 6 7 8 8 8 9 9 10 13 15 17 16 15 15 16 17 18 20 23 23 23 23 24 24 24 23 22 22 23 22 20 18 18 18 18 18 21 23
2 5 7 10 12 14 15 14 15 10 6 7 7 5 3 3 3 6 1 6 4 2 2 1 4 5 4 3 3 3 3 4 4 5 5 6 7 7 7 7 7 7 7 7 7 7 8 9 10 11 10 9 8 8 8 9 8 6 5 5 5 6 7 8 8 8 8 9 11 12 13 13 13 13 14 15 17 20 21 22 23 24 25 24 23 23 23 23 22 20 18 18 18 19 20 22 24
3 4 5 9 9 10 13 7 3 1 1 3 2 3 3 2 7 9 2 3 3 3 3 2 3 1 1 2 3 3 4 3 4 5 4 4 5 6 6 6 6 6 6 7 6 5 5 7 8 10 11 11 10 8 8 8 8 8 7 6 4 3 4 5 6 6 6 7 8 10 11 12 12 13 13 12 14 17 19 21 22 23 24 22 21 21 21 21 20 18 17 17 18 19 20 23 24
3 2 1 5 7 6 6 1 2 2 2 4 4 2 6 6 12 10 2 3 2 3 4 4 4 3 3 2 2 2 3 4 3 3 3 3 4 5 6 6 6 6 7 7 7 6 5 6 8 10 11 11 11 9 8 8 8 8 7 7 5 4 3 3 4 5 6 7 8 8 9 10 11 11 12 12 11 12 14 16 17 18 18 18 18 19 19 19 19 18 17 18 18 18 19 21 24
1 2 2 3 3 5 6 2 1 3 2 5 5 2 6 8 12 7 3 3 3 3 6 6 5 5 4 3 1 1 2 3 3 3 3 3 4 5 6 6 6 6 7 7 7 6 5 5 7 8 9 10 9 9 8 8 8 7 7 6 6 5 5 4 4 4 5 6 8 9 10 10 10 11 11 11 11 12 12 12 13 13 14 15 16 17 17 17 18 18 18 19 20 19 17 18 22
2 1 3 3 1 5 10 6 4 3 1 4 6 2 6 9 11 5 8 4 4 3 8 7 6 6 4 3 2 1 1 2 2 2 3 3 4 5 4 4 5 5 5 4 4 4 4 4 4 5 6 6 6 6 7 7 7 6 6 5 5 6 6 5 5 5 6 7 8 10 11 11 12 13 12 11 11 12 12 12 12 12 13 14 14 15 16 17 18 19 20 20 20 20 18 17 18
3 1 3 3 2 3 8 5 2 3 1 2 3 2 3 6 8 4 9 7 3 6 9 8 7 6 5 4 4 3 2 1 1 2 3 4 4 4 3 2 2 2 1 1 1 2 2 1 1 2 3 3 3 4 5 6 6 6 5 5 5 5 5 6 6 6 6 7 8 9 10 11 13 14 15 14 13 12 13 13 13 14 14 15 15 16 16 17 18 20 21 22 22 21 20 18 18
3 0 2 4 3 2 4 4 3 3 3 1 1 2 5 8 13 9 11 7 1 10 11 10 8 7 7 6 5 4 4 2 2 3 3 4 3 3 3 2 3 2 2 2 2 1 1 1 2 1 2 2 1 2 3 4 4 4 4 5 5 5 5 4 5 5 5 6 7 9 10 11 12 14 16 18 18 18 16 14 14 15 16 17 17 17 17 18 20 22 22 22 22 22 22 20 20
3 3 2 3 2 4 5 4 3 5 4 2 1 4 8 11 13 9 11 4 5 13 13 11 9 8 8 7 6 6 6 5 6 5 4 4 3 3 3 3 4 4 4 4 4 3 2 2 2 1 1 1 0 1 2 2 3 3 3 4 4 4 5 5 4 4 4 3 4 5 7 9 11 12 13 14 16 18 19 18 17 16 16 15 15 17 17 18 20 21 20 20 21 22 22 21 21
6 5 4 4 4 5 5 5 5 2 4 5 5 6 8 11 10 8 10 4 11 14 13 11 10 10 9 9 9 8 8 9 8 6 5 4 4 4 4 4 4 4 5 5 4 4 5 5 4 4 4 4 3 1 1 2 3 3 3 3 4 4 5 5 5 5 5 5 4 4 5 6 8 10 11 12 13 15 16 17 18 19 18 17 17 17 18 17 17 18 18 19 20 22 21 21 22
5 3 3 4 5 6 5 5 5 1 1 6 6 4 7 11 7 8 8 8 13 12 12 12 11 11 11 11 11 10 11 11 9 8 8 7 7 7 6 6 6 6 7 7 7 8 10 9 8 9 10 8 6 5 4 2 2 2 2 2 2 3 3 4 4 5 7 7 7 8 9 8 8 8 9 12 13 14 14 13 14 15 16 17 17 17 17 17 16 16 17 18 19 20 21 21 21
3 2 2 4 5 6 7 6 5 1 4 4 2 2 8 10 4 8 7 8 8 8 11 12 12 12 12 12 13 12 12 11 11 11 11 11 11 11 11 11 11 12 13 14 14 16 16 16 16 16 15 14 13 12 10 8 8 6 5 5 4 3 2 1 2 3 4 6 8 9 11 12 12 12 12 13 14 16 16 16 15 14 15 15 16 16 16 17 16 17 18 18 19 20 21 21 21
2 2 2 4 4 4 7 6 5 0 4 4 1 3 8 7 2 7 8 9 8 9 12 12 13 13 13 13 14 14 14 13 14 15 16 16 16 17 17 18 19 20 22 22 22 22 22 23 23 22 21 21 20 19 17 15 14 12 10 10 9 8 8 6 5 3 2 2 4 6 8 10 12 14 15 16 17 18 19 20 20 20 19 20 20 20 20 20 19 19 19 19 19 20 21 21 21
2 3 3 4 3 1 4 5 5 2 1 2 2 3 6 4 2 6 8 11 13 13 14 13 13 13 13 14 15 15 16 16 18 19 20 21 22 23 24 25 25 26 27 27 26 26 26 26 25 24 24 24 23 22 21 20 17 16 16 15 14 14 14 13 11 10 8 6 5 4 4 6 8 10 11 13 15 16 17 18 19 21 21 22 22 23 23 22 21 21 21 21 21 21 21 21 20
3 5 6 5 4 5 6 4 5 4 3 2 1 3 5 4 3 2 6 10 13 13 14 14 12 13 13 14 16 16 17 19 21 23 24 25 26 27 28 27 27 27 28 27 26 26 25 25 24 23 23 23 23 22 21 19 17 17 17 17 17 17 18 16 14 14 13 11 10 8 7 5 5 5 7 8 10 11 12 14 15 17 18 20 21 22 22 23 23 22 22 22 22 21 21 20 20
4 6 9 9 8 8 6 2 5 4 4 3 2 3 5 4 2 3 4 4 6 7 10 12 11 12 13 14 16 16 18 20 23 25 26 27 28 27 27 26 25 26 26 25 25 24 24 23 23 22 22 22 22 21 19 17 16 16 15 15 16 15 15 15 15 15 14 12 12 11 9 8 6 5 5 5 6 7 8 10 11 12 14 16 17 18 20 21 21 22 22 23 22 22 21 21 21
3 5 8 9 7 6 5 1 2 0 3 2 2 1 5 5 1 4 5 4 4 4 6 8 10 11 13 15 16 16 19 21 23 25 26 26 26 25 24 24 24 25 25 23 23 23 22 22 21 21 21 21 20 19 17 15 14 13 12 12 12 12 13 14 15 14 12 12 11 10 9 8 7 6 5 4 4 4 5 7 8 9 11 12 13 15 16 17 19 20 21 22 22 22 22 23 23
3 4 6 7 6 6 5 5 4 3 2 4 3 2 3 5 3 4 6 6 3 2 3 5 9 11 13 15 15 17 19 21 23 24 24 24 23 23 23 23 23 23 22 21 21 21 21 20 19 19 19 18 18 16 14 13 12 12 11 11 11 12 12 13 13 11 11 10 9 8 8 8 8 7 6 6 5 5 5 5 6 7 9 10 11 12 13 14 15 17 18 19 21 21 22 23 24
5 3 6 6 6 6 4 5 3 1 2 4 4 1 2 6 3 1 3 3 3 5 5 5 9 12 13 15 15 17 19 21 23 24 23 23 22 22 22 21 21 20 19 19 19 19 18 18 17 16 17 16 16 14 13 13 12 12 11 10 11 12 12 12 11 10 10 8 7 7 7 7 7 7 7 8 8 7 7 7 7 7 8 9 10 11 12 13 13 14 15 17 18 20 21 22 24
4 6 7 5 5 5 4 4 3 2 1 4 6 4 2 5 3 3 2 4 6 6 4 6 10 13 13 15 16 17 20 21 22 22 22 21 21 21 20 19 19 18 17 16 16 16 15 15 14 14 15 15 14 13 12 12 12 11 11 10 11 11 11 10 8 8 8 7 6 6 6 6 6 6 7 8 8 9 9 9 9 9 10 10 11 11 11 11 12 13 14 15 16 17 19 20 22
7 7 5 6 5 4 3 2 4 2 3 5 9 9 5 4 4 4 4 3 4 6 5 6 10 14 15 16 17 19 21 21 21 21 21 20 20 19 18 17 16 15 15 13 13 13 12 13 12 12 13 12 11 10 10 10 9 9 9 9 9 9 8 6 5 6 7 6 6 6 7 6 6 6 7 7 8 9 9 10 11 12 12 12 13 13 14 14 13 13 13 13 14 15 17 18 20
6 4 4 3 4 4 4 4 3 1 5 3 4 5 5 5 5 3 4 3 2 5 7 9 12 16 19 19 20 21 21 21 21 20 20 19 18 17 16 14 14 13 12 10 10 10 10 11 11 11 11 10 9 8 7 7 7 6 6 5 5 6 5 3 3 5 5 5 6 7 6 6 6 5 5 5 6 7 9 10 11 11 12 13 14 15 16 16 16 16 15 15 14 14 15 16 17
4 4 5 3 2 3 2 3 0 3 6 3 1 1 2 7 6 3 4 4 4 6 8 14 20 22 23 23 22 22 22 22 21 20 20 19 17 16 14 12 12 10 9 8 8 8 8 9 9 9 8 7 7 6 5 5 4 3 3 2 3 3 2 2 3 4 4 5 5 5 4 5 5 5 6 6 7 8 9 9 10 11 12 13 14 15 16 16 17 17 17 17 17 17 17 17 17
4 4 5 4 2 1 3 3 1 4 5 2 1 2 2 5 3 3 4 5 7 9 11 18 27 29 28 26 25 24 23 22 21 20 19 18 16 14 12 10 9 8 7 6 6 6 6 6 6 6 5 4 3 2 1 1 1 1 0 0 1 1 2 3 3 4 4 5 5 5 6 6 7 7 8 9 10 10 11 11 11 12 13 13 14 14 15 16 17 18 18 19 19 19 19 19 19
3 3 4 4 4 4 4 3 3 4 4 3 1 2 3 3 1 2 3 3 3 3 9 19 26 29 29 27 26 26 25 23 22 20 19 17 15 13 11 9 7 6 5 4 4 3 3 3 3 2 2 2 1 1 2 2 2 2 1 1 1 1 1 2 2 3 4 5 6 7 8 8 9 10 10 11 11 11 12 12 13 13 14 15 15 16 16 17 18 18 19 21 21 21 21 21 21
2 2 3 2 4 4 2 3 5 3 2 3 2 3 4 4 1 1 2 4 5 6 13 20 24 26 27 27 27 27 25 24 22 21 19 17 15 13 10 8 6 5 4 3 2 2 1 1 2 2 2 2 3 3 3 3 3 3 3 2 1 1 0 1 2 3 3 4 6 7 8 9 9 10 10 11 11 12 12 12 13 14 14 15 16 17 17 18 19 20 20 22 23 23 24 24 24
2 2 3 4 4 5 2 2 1 3 2 4 2 3 5 1 1 3 4 4 5 5 11 17 22 25 26 27 28 28 26 25 24 22 20 17 15 13 10 8 7 5 4 3 3 4 4 4 4 4 4 5 5 5 5 5 4 4 4 3 3 2 2 1 0 1 2 3 4 5 5 6 7 8 9 10 11 12 13 13 14 14 14 15 16 17 17 18 19 20 21 22 23 24 25 25 26
5 2 5 3 2 3 3 1 2 1 4 4 1 5 4 2 2 2 3 0 2 4 7 12 18 23 25 27 29 28 27 26 24 22 20 18 16 13 11 9 7 7 6 6 6 7 7 7 7 7 6 7 7 6 6 6 5 5 4 4 3 3 2 2 1 1 1 1 1 2 3 4 5 6 7 8 9 10 12 13 14 15 16 17 18 18 19 20 20 21 22 23 24 25 26 26 27
5 3 3 3 2 1 2 2 2 2 5 4 3 5 5 5 5 1 3 8 8 7 7 9 15 21 24 27 29 30 29 27 26 24 22 20 17 14 12 10 10 9 9 9 9 9 8 8 8 8 8 8 7 7 6 6 5 5 4 3 2 2 1 1 1 2 2 3 3 4 5 6 6 7 8 8 9 9 10 12 13 15 16 18 20 21 23 24 25 26 26 27 27 28 29 30 30
3 1 0 1 2 3 2 2 2 3 5 5 4 5 4 5 6 7 10 12 12 11 10 10 16 23 28 31 33 33 32 30 28 25 23 20 17 14 13 12 11 11 11 11 11 10 10 9 9 9 9 8 8 7 6 5 5 4 3 3 3 3 3 4 5 6 6 7 8 9 10 10 11 10 11 11 11 11 12 12 14 15 16 18 19 21 24 26 28 29 31 32 33 33 34 35 34
3 2 2 2 1 1 1 2 2 3 4 4 5 6 5 4 3 7 8 8 12 15 13 12 19 27 31 35 36 36 33 31 27 25 23 21 18 16 15 14 13 13 14 13 12 12 11 11 10 10 9 8 7 7 6 5 5 4 3 3 3 4 5 6 7 8 10 10 11 12 12 13 13 13 13 13 14 14 15 16 17 18 19 20 21 23 25 26 28 30 31 33 35 37 38 40 40
4 5 6 6 4 2 3 5 2 2 3 4 4 6 6 3 0 2 4 4 10 16 14 14 22 30 33 36 36 35 32 29 26 23 22 21 20 18 17 16 15 15 15 14 13 13 12 12 11 10 9 8 8 7 6 5 4 3 3 4 5 7 8 9 10 11 12 13 14 14 14 15 15 15 16 16 17 18 19 20 21 22 23 24 25 26 27 29 30 31 32 33 35 37 39 41 43
Wind_Direction
297 294 286 283 299 293 275 268 142 358 64 87 325 59 240 217 202 261 297 296 308 275 254 346 0 140 93 136 235 241 204 185 185 115 256 255 319 321 307 34 108 158 136 182 199 191 184 183 189 196 202 205 209 215 218 219 220 225 229 230 227 228 228 226 218 207 197 189 188 185 184 186 185 181 178 186 195 206 207 205 192 184 182 164 151 162 190 188 195 192 200 313 269 176 173 183 185
299 295 292 273 299 303 252 253 84 354 51 71 279 173 263 314 330 228 214 231 225 290 308 342 37 107 9 308 315 337 268 259 234 219 268 266 310 321 315 321 312 181 167 170 198 201 194 187 188 192 200 205 210 215 219 223 226 231 231 228 226 228 225 221 215 209 203 196 196 196 197 198 197 196 195 208 229 242 245 237 217 205 187 175 171 176 200 202 201 202 242 263 261 223 185 198 205
309 300 301 263 285 320 237 43 92 60 70 115 273 244 291 17 235 229 220 237 251 319 333 326 77 159 54 40 6 76 291 289 230 234 282 280 313 340 333 308 281 196 184 169 188 203 204 196 192 192 196 202 209 214 218 223 227 232 233 233 231 225 218 214 211 209 207 203 207 211 214 218 221 224 224 233 249 251 247 243 230 216 192 185 188 191 207 213 207 207 231 248 260 264 249 241 224
318 314 324 275 263 350 59 45 121 114 109 187 279 267 251 188 227 241 248 253 240 322 319 350 42 203 358 10 322 233 278 296 221 237 300 308 337 359 354 322 275 212 189 182 184 194 207 204 200 197 197 201 205 211 217 222 225 229 232 234 233 226 216 210 209 210 210 210 215 221 225 230 238 243 250 260 265 256 240 231 227 215 191 195 204 202 213 226 219 209 225 249 270 284 289 283 259
327 349 349 312 254 39 80 71 108 103 164 183 122 272 246 206 230 260 255 186 189 15 6 0 28 338 324 316 254 265 285 276 261 284 322 336 351 5 9 347 300 231 196 190 188 187 200 206 208 205 203 203 204 208 214 219 223 227 231 232 230 226 220 212 211 214 214 217 221 226 231 235 243 253 264 274 273 256 236 223 215 198 184 197 216 215 227 244 230 214 243 266 281 291 295 291 281
352 19 0 4 85 88 96 96 119 150 217 170 143 258 247 214 222 257 197 155 178 86 15 10 25 348 348 353 294 282 298 293 307 296 287 337 354 5 16 12 342 258 211 194 193 194 196 206 211 212 211 209 207 209 213 216 221 225 229 232 230 228 226 220 217 219 221 223 226 231 236 240 249 259 269 278 270 244 222 212 202 190 189 200 220 226 237 252 256 254 268 279 283 284 286 287 285
339 310 345 40 71 37 94 119 172 221 229 171 173 239 244 224 207 218 104 149 248 351 354 15 21 1 22 356 329 310 315 293 290 268 243 326 355 9 20 24 7 303 241 212 205 203 202 207 211 215 216 215 213 212 215 217 220 223 226 230 231 231 232 230 226 226 228 230 232 236 240 243 251 261 266 274 266 236 209 199 197 193 197 209 222 230 241 255 273 276 276 281 280 278 278 278 278
356 324 354 79 48 25 86 109 216 217 232 223 231 242 258 241 202 209 34 66 347 328 345 349 5 21 285 328 317 306 325 306 270 238 243 299 355 25 26 26 17 354 278 236 217 213 215 212 211 216 219 219 218 218 218 219 222 224 225 229 231 233 235 237 236 235 235 236 237 239 243 246 253 259 259 264 261 232 207 198 199 204 207 218 232 244 254 266 278 281 280 278 279 279 277 276 269
11 347 359 69 73 33 48 27 285 247 273 289 282 264 268 235 207 185 99 47 14 320 328 306 335 355 306 316 309 302 327 322 256 228 247 274 325 36 31 25 15 2 315 261 237 226 223 220 217 217 220 222 222 223 223 223 226 227 228 230 232 234 237 240 241 241 241 242 242 242 242 241 247 253 253 257 254 228 209 201 202 215 225 233 248 259 266 272 278 282 283 276 279 280 277 279 268
8 15 57 74 75 47 20 317 297 263 265 291 285 273 268 218 221 112 117 93 43 342 334 306 250 311 316 313 314 320 337 333 269 224 252 268 281 5 20 17 6 352 326 279 256 244 235 229 223 219 221 223 225 227 226 227 229 231 232 233 235 236 239 243 244 243 243 244 245 245 240 234 235 241 247 251 252 237 216 211 212 223 241 251 258 263 268 273 277 282 283 281 274 269 270 274 258
359 22 68 77 66 67 97 239 286 282 278 307 292 261 256 248 230 72 84 99 41 342 335 331 252 284 328 304 309 323 324 327 276 228 260 266 267 291 344 1 358 343 314 287 267 257 249 240 232 224 222 224 227 230 230 230 232 234 235 237 238 239 241 245 246 246 246 244 244 244 239 232 232 238 246 245 246 247 233 224 227 236 249 261 268 270 274 278 279 279 281 287 269 259 260 260 244
356 9 57 88 109 166 173 213 278 289 308 324 282 250 311 292 95 1 31 115 306 323 314 296 246 324 341 305 322 351 359 354 294 243 270 264 258 273 310 340 348 345 313 290 277 267 259 254 245 234 226 225 228 232 234 234 235 237 237 239 240 241 244 246 248 248 247 244 243 242 236 230 230 234 240 242 240 246 245 235 236 247 257 269 279 283 289 289 287 284 282 286 268 261 258 250 240
59 130 76 93 153 152 150 199 275 303 331 299 227 302 336 305 310 263 195 168 280 310 319 185 178 327 313 299 326 30 24 8 348 296 290 274 260 266 293 319 333 341 327 302 293 281 269 264 258 249 237 229 229 232 235 237 238 241 240 241 241 242 244 247 249 251 250 246 243 240 235 229 227 230 233 237 237 241 247 245 246 255 265 278 288 296 304 300 298 298 287 276 265 264 259 248 241
67 141 96 109 87 116 158 302 314 98 338 284 277 317 328 327 342 336 313 324 291 293 329 214 303 321 303 303 320 5 350 340 335 321 303 284 267 265 285 307 316 325 330 316 302 289 276 269 263 258 250 240 234 232 233 235 237 241 243 243 243 243 244 247 250 251 252 248 244 239 236 230 225 228 232 234 235 238 246 251 257 262 270 283 292 301 309 303 305 310 285 265 260 259 256 249 243
66 95 90 109 33 14 174 314 26 109 123 285 319 326 336 353 4 353 345 323 292 325 281 251 295 306 294 297 304 317 325 324 327 330 323 295 272 266 282 299 306 309 317 317 308 300 287 272 263 258 255 251 246 240 237 235 235 238 242 244 245 245 245 248 249 250 252 250 247 241 239 236 231 230 232 234 235 240 245 252 259 263 270 281 288 299 308 301 302 303 278 259 256 252 249 245 244
54 70 73 83 43 94 165 180 84 90 281 265 327 329 338 347 1 355 337 307 296 302 289 285 289 283 280 283 297 312 321 321 323 333 338 319 281 272 282 295 301 304 307 310 310 307 299 281 269 261 257 256 254 252 248 244 239 239 241 243 245 247 247 248 250 249 249 249 247 245 242 239 237 236 233 235 236 240 244 250 259 265 270 276 283 294 303 298 296 288 265 251 252 249 244 241 243
36 57 68 57 142 169 187 195 145 118 269 285 337 340 355 316 319 324 314 295 293 296 295 297 293 285 288 296 307 316 323 324 320 324 332 331 308 288 291 299 302 304 304 304 307 309 309 300 281 268 263 261 260 259 257 253 249 244 243 243 242 244 246 248 250 249 248 247 246 245 244 242 240 240 237 237 237 239 244 249 257 266 270 274 282 291 294 291 288 280 260 247 249 247 241 239 240
29 90 89 330 187 186 182 184 183 155 255 284 326 332 303 298 299 308 301 283 295 305 307 309 310 310 317 320 321 319 322 321 314 316 321 323 313 300 297 298 296 297 295 293 296 300 306 306 295 281 271 265 263 263 261 260 256 251 248 245 243 242 243 244 245 247 247 245 244 244 243 242 243 243 240 239 240 242 244 247 253 264 270 275 283 287 288 287 282 276 262 247 248 246 241 240 242
61 108 94 251 201 209 196 183 187 162 272 272 290 295 266 271 288 307 290 284 307 315 314 321 332 337 342 336 326 318 317 312 307 309 311 312 306 301 299 295 293 292 289 287 287 287 289 292 292 289 284 276 269 265 264 264 262 259 254 251 249 246 245 244 243 245 246 244 242 242 243 244 245 246 244 241 242 246 248 248 254 262 267 272 277 281 285 288 284 276 262 249 246 248 246 243 244
79 103 103 247 215 233 229 210 224 241 277 277 292 292 267 280 293 288 271 301 310 303 305 315 330 336 336 332 325 318 316 311 306 307 307 307 304 301 301 299 297 294 290 287 282 277 279 282 285 285 283 282 279 274 269 266 265 264 261 258 255 252 250 248 247 245 244 245 244 242 243 246 248 247 247 244 243 246 250 251 254 260 265 268 272 279 287 289 284 275 265 256 245 246 248 245 245
174 145 181 229 183 245 259 245 255 254 273 283 299 306 293 305 308 283 306 331 310 300 310 320 326 329 328 326 325 325 325 320 312 308 305 302 300 300 301 302 299 294 292 287 278 271 273 278 279 278 275 274 278 281 281 275 270 267 265 263 261 259 256 253 253 252 247 243 243 245 246 247 248 248 247 246 245 245 248 251 251 254 259 267 274 279 288 290 285 276 269 262 248 247 251 247 244
182 218 236 241 178 243 280 283 288 284 302 299 306 312 298 307 303 291 301 284 279 297 314 324 325 324 325 328 333 336 339 334 324 312 304 298 296 297 300 300 295 290 287 282 279 271 268 272 271 272 274 270 269 277 285 286 282 275 268 265 263 262 261 257 253 255 257 252 245 244 246 248 250 249 247 246 245 244 247 250 252 253 257 266 273 277 287 290 286 279 270 263 252 249 252 252 250
215 266 266 267 245 252 280 291 294 293 302 298 299 298 291 297 301 299 288 272 285 298 308 321 329 333 340 353 3 1 3 354 337 311 301 297 294 298 300 298 291 284 278 275 273 266 261 260 257 253 257 260 261 266 275 285 291 289 280 271 265 263 263 263 255 249 253 256 256 254 251 252 254 254 252 249 246 244 246 249 250 254 260 266 272 277 285 288 286 281 270 261 253 248 250 253 253
197 273 287 287 271 264 282 295 295 293 294 293 297 289 281 282 291 303 291 287 300 312 323 341 356 10 8 16 27 26 23 0 319 294 289 289 292 296 298 295 290 282 276 270 266 260 254 251 248 243 239 239 247 255 264 279 290 293 290 282 274 269 264 264 265 258 251 252 259 264 264 262 261 260 258 253 250 248 246 249 251 255 262 268 271 276 282 286 288 285 273 262 254 249 248 250 252
184 241 285 301 292 289 297 299 293 292 294 297 297 273 274 280 276 282 283 293 323 340 7 35 28 16 10 13 23 26 5 317 266 267 267 272 279 283 286 286 284 280 275 268 265 259 254 253 248 244 238 228 229 240 252 267 282 290 293 294 290 282 273 266 265 262 257 252 252 257 263 266 265 265 264 258 253 252 248 247 251 257 263 269 272 278 284 289 291 289 279 267 256 250 247 248 250
207 223 277 299 298 299 300 293 288 290 291 293 285 274 286 297 272 266 273 295 349 34 87 61 359 356 360 4 14 3 308 272 247 243 241 248 256 261 265 270 273 271 268 263 260 257 255 257 255 250 244 233 225 225 232 244 264 285 295 299 299 292 286 278 268 260 256 252 250 255 264 270 269 267 267 261 251 252 254 251 254 259 263 268 275 282 288 292 294 292 285 274 262 252 248 247 247
247 262 282 284 289 294 291 284 286 290 288 280 255 268 296 330 175 260 290 46 92 123 111 12 343 351 352 349 347 322 284 270 261 246 240 240 237 245 252 257 265 267 268 265 261 259 257 257 258 257 253 245 231 219 219 223 233 256 277 291 298 299 297 288 280 272 264 260 260 266 272 272 273 274 273 266 254 253 256 256 258 261 265 272 280 286 289 292 294 291 287 281 271 258 249 246 244
315 321 302 291 301 298 285 279 287 293 290 267 228 253 300 126 187 240 195 78 92 104 94 24 357 355 338 320 317 311 289 290 288 271 258 252 247 251 255 258 267 272 275 278 273 266 259 254 253 255 258 256 243 224 216 212 214 223 235 258 278 292 298 298 297 286 275 274 273 275 277 277 280 285 284 277 267 263 263 262 263 267 272 278 283 286 288 289 290 290 289 289 284 271 256 248 243
303 337 315 300 334 318 288 278 274 269 241 245 206 286 304 170 222 227 188 59 55 61 78 74 54 50 228 265 290 298 303 303 290 290 289 277 271 269 272 276 281 286 287 289 288 276 259 246 243 248 254 257 252 238 220 210 209 213 216 221 232 262 284 297 301 293 287 287 284 283 286 287 287 289 292 285 273 270 268 267 268 271 275 279 282 285 287 287 288 290 293 295 296 287 270 258 250
287 347 7 307 351 324 287 94 107 347 281 210 150 268 281 259 237 230 268 332 11 64 87 94 106 137 155 178 248 283 302 300 294 305 305 294 289 289 293 296 296 295 290 286 284 278 262 244 239 243 246 250 251 245 234 220 211 211 212 210 210 225 248 271 283 289 295 293 289 286 287 288 289 290 292 288 282 278 275 272 271 274 278 281 283 285 287 289 290 292 296 300 303 300 285 268 259
286 345 22 349 349 280 294 4 256 337 316 193 148 223 264 271 265 271 353 321 340 66 109 116 131 139 142 152 166 274 306 312 318 325 314 311 305 302 306 304 301 291 282 278 276 274 265 250 239 238 240 243 244 243 238 227 221 217 212 208 205 206 214 229 247 263 272 273 274 276 279 283 287 289 286 284 284 283 284 287 288 288 286 284 284 287 288 291 293 296 299 301 305 305 295 276 265
30 305 308 333 188 264 310 320 209 210 261 165 144 208 269 277 283 349 50 358 332 88 122 124 132 129 130 122 92 61 28 351 332 332 329 331 322 319 318 308 299 286 277 272 266 264 261 255 242 236 238 242 241 240 234 226 224 220 211 205 202 204 208 211 219 233 242 249 255 256 257 262 269 275 280 282 283 284 286 290 293 292 288 287 287 289 291 295 298 299 299 301 305 307 301 288 277
359 192 243 272 204 269 318 327 218 196 140 151 158 235 280 280 279 8 40 346 318 129 126 122 122 114 108 95 78 69 65 46 347 348 343 342 340 344 343 339 325 286 266 217 213 226 235 233 220 228 234 241 244 241 238 230 222 215 206 195 191 194 202 207 212 221 230 240 249 250 249 249 250 252 256 262 266 272 278 283 288 287 285 287 288 290 294 297 299 299 300 302 305 308 305 300 295
310 1 218 241 212 238 292 314 336 54 96 195 315 242 254 275 280 321 12 350 145 130 124 118 112 101 97 90 81 77 71 68 45 23 10 5 3 13 29 55 77 89 98 108 115 126 138 143 159 185 213 221 234 233 237 231 217 209 194 181 185 184 181 182 193 211 222 235 247 254 257 255 250 247 249 253 252 253 256 262 274 281 280 282 284 287 289 291 294 293 294 298 302 306 306 304 304
207 197 206 254 248 237 250 270 312 29 31 290 286 253 261 276 282 335 19 14 126 121 120 113 108 103 100 95 90 82 72 68 57 43 37 37 42 55 65 80 92 98 96 91 82 78 83 82 81 98 152 150 172 218 222 216 205 197 182 175 182 178 166 165 174 188 193 212 228 239 250 255 260 261 260 259 257 256 254 252 255 262 265 269 272 275 278 284 289 287 290 296 298 298 300 301 303
181 192 174 197 241 253 243 248 261 353 351 284 252 245 260 271 276 7 29 77 114 116 117 108 107 106 105 101 93 86 80 75 66 61 64 69 81 88 96 103 109 109 95 84 79 77 81 77 75 88 88 77 74 105 174 209 209 195 188 188 184 169 171 186 194 197 199 208 220 230 244 251 259 264 262 262 264 265 263 258 254 255 255 255 255 257 260 268 276 283 292 298 295 293 296 298 301
143 140 155 205 232 264 266 260 265 161 190 270 251 239 268 267 279 7 35 97 103 110 113 105 108 106 105 103 96 91 85 81 81 83 85 87 93 97 103 108 113 113 101 94 94 91 89 90 95 93 87 85 89 90 94 123 144 146 162 166 161 162 182 209 216 221 227 232 239 246 252 251 248 249 254 259 262 263 267 266 264 263 262 260 258 256 257 260 266 280 290 292 292 294 295 298 300
108 138 225 263 240 257 264 258 282 185 179 263 240 191 271 267 295 9 43 86 82 106 115 109 112 108 106 104 99 98 95 97 101 99 98 98 100 102 104 108 110 105 100 96 92 90 89 92 93 90 89 92 91 89 90 93 94 88 89 96 93 104 125 170 217 237 251 250 253 256 258 258 254 253 254 256 256 257 261 264 265 264 264 264 264 265 266 267 270 276 279 280 283 286 288 291 294
102 125 193 265 248 278 284 277 313 93 174 259 213 185 262 274 24 28 49 80 80 106 120 119 118 113 109 108 105 107 108 108 108 105 104 103 103 104 103 101 99 95 93 91 88 87 88 87 87 86 87 87 85 85 87 85 83 81 82 86 84 85 88 79 73 61 21 306 281 275 271 269 265 263 261 261 261 260 260 261 262 263 264 265 266 267 268 268 269 269 270 273 276 278 281 284 288
129 144 166 246 250 315 279 287 332 358 165 262 229 229 272 281 77 47 57 87 93 102 113 115 118 115 113 115 114 115 112 109 107 105 104 103 103 102 99 96 94 93 92 91 89 87 86 85 84 85 85 84 84 84 83 80 80 81 82 83 83 83 82 77 74 71 62 51 34 1 325 300 287 279 274 272 271 270 269 268 267 268 268 267 267 267 267 267 266 264 265 268 272 275 278 280 283
235 203 196 225 237 218 227 281 335 335 355 2 311 308 291 255 215 104 79 91 91 98 107 106 111 116 119 122 120 118 114 110 109 108 106 105 103 100 98 97 96 94 92 89 87 85 83 83 81 81 81 81 81 80 79 79 79 81 82 83 83 82 83 83 81 78 74 70 65 55 42 23 353 324 306 297 289 285 283 281 280 278 276 274 271 269 268 266 264 263 263 264 268 272 274 275 275
273 234 206 211 224 227 234 324 6 359 344 347 18 324 292 292 262 167 140 96 84 94 102 103 113 121 126 126 122 121 117 114 113 110 108 105 103 101 99 97 94 90 87 84 83 82 80 79 78 76 76 75 75 74 74 75 75 78 79 82 84 85 87 87 84 81 81 79 75 69 63 55 43 24 1 339 319 308 300 296 293 290 287 283 279 275 272 269 267 265 264 264 265 269 271 272 271
279 244 198 200 208 218 229 177 90 103 259 294 52 190 271 304 294 177 162 123 101 101 99 113 126 128 132 130 128 128 122 119 116 112 110 107 104 101 97 93 89 85 83 82 80 78 76 75 74 73 72 72 72 72 71 72 73 75 75 77 81 81 80 81 81 80 79 77 76 74 72 71 66 55 42 25 2 340 325 316 310 305 301 297 292 286 280 275 272 269 269 268 267 268 270 272 273
239 237 155 160 176 192 200 163 166 223 254 319 5 123 264 288 261 199 155 125 117 147 126 133 140 138 141 139 137 134 128 124 120 116 113 109 105 100 95 91 88 85 83 81 77 75 72 70 68 68 68 69 71 70 69 68 67 66 64 61 65 68 70 76 80 80 78 77 77 75 71 71 68 62 55 46 36 19 358 342 332 324 319 313 309 304 296 288 280 274 271 270 268 269 270 273 274
244 205 122 133 151 157 139 127 160 300 39 306 294 135 257 272 259 177 146 150 222 204 183 175 160 154 153 149 146 140 134 129 125 121 116 111 107 101 97 93 89 86 84 79 75 71 68 66 63 62 63 64 65 64 60 58 56 53 52 47 50 60 67 73 79 80 81 80 78 76 69 61 56 51 47 43 40 34 24 13 1 349 339 332 327 322 313 304 296 287 281 275 271 269 268 270 272
200 131 94 73 78 89 87 104 116 39 14 240 232 176 216 272 241 160 197 254 237 198 182 193 174 165 162 157 154 147 139 134 129 125 120 115 111 105 101 99 95 90 84 77 73 70 67 65 60 57 58 57 56 54 47 46 47 45 45 44 47 58 68 75 80 81 81 80 76 75 69 58 48 39 36 33 31 32 29 23 17 10 6 1 354 348 340 329 319 310 301 293 285 278 272 269 270
133 110 69 47 31 42 50 53 87 53 288 220 203 188 184 264 267 190 196 227 199 163 167 193 179 173 171 165 160 152 145 141 136 131 126 121 116 111 107 104 98 91 85 80 75 71 67 64 58 53 56 56 52 49 43 42 46 45 47 52 56 65 75 80 78 75 77 75 64 63 59 53 46 36 30 23 20 23 22 17 16 13 10 8 5 6 4 1 356 347 336 322 310 300 291 282 277
112 90 78 75 340 5 26 356 51 135 257 234 213 196 179 233 262 228 224 246 194 178 178 181 179 179 177 171 166 158 151 148 143 138 132 127 122 117 113 106 98 93 88 83 78 71 65 62 55 50 54 55 50 46 41 38 38 40 49 59 63 72 82 75 54 59 66 60 53 58 57 53 51 46 36 26 19 19 16 12 10 6 4 2 3 4 5 6 6 4 0 353 344 335 324 314 304
87 95 102 100 327 352 348 306 95 224 250 253 241 158 202 242 244 213 233 270 267 247 215 184 177 178 178 175 169 163 159 156 151 146 139 133 128 124 119 110 102 98 92 84 78 68 60 57 52 47 49 49 44 37 31 26 19 27 47 52 54 63 61 41 39 48 53 52 53 55 49 42 39 35 31 28 25 22 17 11 6 4 2 2 2 1 1 1 1 1 0 358 356 355 352 346 339
147 148 136 132 128 165 263 266 266 269 269 273 212 178 250 274 270 193 230 273 282 275 243 196 179 177 177 175 171 167 166 164 159 153 145 140 136 132 126 118 111 107 98 86 77 67 56 55 52 46 49 52 48 39 15 342 304 307 314 344 38 45 19 14 23 34 41 41 38 30 26 24 22 21 22 24 25 23 17 12 8 5 2 360 358 357 356 356 355 355 355 353 353 353 352 351 348
186 164 137 149 155 173 216 218 214 256 284 291 230 180 202 230 253 223 230 288 317 260 200 184 178 177 176 175 174 174 172 170 166 158 152 148 145 141 137 132 128 123 109 92 85 76 58 59 61 51 68 102 154 190 211 229 237 235 228 246 283 331 355 4 15 27 32 27 22 18 16 17 16 17 18 18 19 15 11 8 4 1 358 355 353 351 350 350 349 348 348 347 347 346 346 345 343
218 114 108 172 182 167 189 203 178 175 296 285 203 213 225 194 163 3 56 60 60 110 149 161 170 176 177 180 182 180 177 174 170 164 160 159 157 154 152 150 149 146 134 125 131 138 138 159 167 164 164 175 187 194 206 211 208 206 202 206 215 224 295 355 14 23 22 17 12 6 3 4 5 6 7 6 7 5 2 1 359 357 356 354 352 351 349 348 347 346 345 344 342 341 341 341 339
166 125 189 223 182 134 120 268 127 103 257 262 194 243 283 304 30 14 40 60 66 110 145 158 169 175 181 186 186 183 180 177 173 170 168 168 167 167 167 168 171 173 174 180 191 195 196 195 190 186 184 185 187 191 195 193 189 189 189 188 185 180 180 191 177 11 11 11 1 351 349 346 344 345 348 351 352 352 351 351 352 352 352 352 351 350 348 347 346 344 343 341 339 337 336 337 335
127 177 215 201 120 96 99 249 335 47 244 266 238 234 259 262 254 346 21 137 184 180 173 169 175 181 187 191 189 185 183 181 179 177 178 178 177 177 179 183 189 193 199 205 206 204 199 194 190 187 187 185 185 185 182 181 179 180 183 181 179 175 170 163 135 91 49 27 338 323 319 316 321 329 335 338 338 338 338 338 339 340 341 343 343 342 340 339 339 337 336 335 333 330 329 329 328
131 187 198 120 145 203 114 175 225 234 238 265 273 247 242 225 219 202 214 214 204 195 191 187 188 191 194 195 192 190 188 188 187 185 185 186 185 188 190 195 201 204 207 209 208 205 199 195 192 190 190 186 183 181 178 181 185 189 197 197 204 223 253 295 324 340 341 334 326 326 327 328 333 335 336 335 332 331 331 329 329 329 330 332 332 333 333 332 332 331 330 329 327 325 324 323 322
97 114 31 76 175 186 165 172 191 215 230 249 257 247 252 243 203 177 201 206 188 184 193 199 197 195 196 195 194 194 193 192 191 190 191 192 192 196 200 205 211 212 213 212 210 206 201 199 198 195 194 191 189 190 192 200 210 219 235 250 271 291 310 319 326 331 330 329 329 330 332 332 334 335 334 333 331 329 327 326 326 326 325 325 326 326 326 326 326 326 326 325 324 323 322 321 320
150 160 205 232 206 164 247 231 144 160 201 225 242 245 255 264 198 178 208 208 183 185 190 193 197 198 199 198 196 196 194 193 194 195 197 199 201 204 207 210 214 214 216 216 212 208 205 204 204 202 202 201 202 205 208 216 225 235 252 276 302 321 330 332 333 331 329 328 328 327 327 327 328 328 327 326 325 325 325 324 324 324 324 324 323 323 322 321 321 320 321 321 321 321 320 319 319
176 193 203 202 189 175 243 247 203 163 192 192 225 256 259 259 211 189 223 206 186 191 189 186 196 200 202 202 200 198 196 196 198 200 202 205 208 211 213 215 218 219 221 219 215 213 212 212 213 211 210 209 209 213 217 227 242 265 292 308 318 324 325 325 325 325 324 324 323 322 322 321 321 321 320 320 319 319 320 321 322 322 322 322 322 321 320 319 318 317 317 317 316 316 316 316 316